Regional Weather Roundup
Issued by NWS

Home | Current Version | Previous Version | Graphics & Text | Print | Product List | Glossary On
Versions: 1 2 3 4 5 6 7 8 9 10 11 12 13 14 15 16 17 18 19 20 21 22 23 24 25 26 27 28 29 30 31 32 33 34 35 36 37 38 39 40 41 42 43 44 45 46 47 48 49 50
000
ASUS43 KLSX 251407
RWRMO

WEATHER SUMMARY FOR MISSOURI
NATIONAL WEATHER SERVICE SPRINGFIELD MO
800 AM CST THU DEC 25 2014

NOTE: "FAIR" INDICATES FEW OR NO CLOUDS BELOW 12,000 FEET WITH NO
       SIGNIFICANT WEATHER AND/OR OBSTRUCTIONS TO VISIBILITY.
       CURRENT SKY AND/OR WEATHER CONDITIONS ARE NOT AVAILABLE FOR
       CHILLICOTHE AND FARMINGTON.

MOZ001>031-035>038-043-044-053-054-251500-
...NORTHERN AND WESTERN MISSOURI...

CITY           SKY/WX    TMP DP  RH WIND       PRES   REMARKS
KANSAS CTY INT MOCLDY    34  26  72 S16       29.78S WCI  24
KANSAS C DTWN  CLEAR     34  27  75 S9        29.81S WCI  27
LEE`S SUMMIT   PTCLDY    32  27  81 S13       29.83R WCI  22
ST JOSEPH      PTCLDY    34  27  75 S13       29.76F WCI  25
CHILLICOTHE      N/A     32  28  85 S7        29.85R WCI  26
KIRKSVILLE     CLEAR     31  29  92 S10       29.86R WCI  22

$$
MOZ066>068-077>081-088>096-101>105-251500-
...SOUTHWEST MISSOURI...

CITY           SKY/WX    TMP DP  RH WIND       PRES   REMARKS
SPRINGFIELD    CLEAR     31  27  85 S12       29.92S WCI  22
JOPLIN         CLEAR     36  27  69 S16       29.90R WCI  26

$$
MOZ032>034-039>042-045>050-055>058-069>072-251500-
...CENTRAL MISSOURI...

CITY           SKY/WX    TMP DP  RH WIND       PRES   REMARKS
COLUMBIA       CLEAR     31  28  89 S12       29.93R WCI  22
JEFFERSON CITY CLEAR     31  27  85 E5        29.96R WCI  26
ROLLA          CLEAR     32  28  85 S12       29.95R WCI  23
SEDALIA        CLEAR     34  28  79 S14       29.90R WCI  25
WHITEMAN AFB   CLEAR     32  28  85 S12       29.87R WCI  23
WARRENSBURG    PTCLDY    32  28  86 SE8       29.87S WCI  25
OSAGE BEACH    CLEAR     30  27  86 S8        29.95R WCI  23

$$
MOZ051-052-059>065-251500-
...EAST CENTRAL MISSOURI...

CITY           SKY/WX    TMP DP  RH WIND       PRES   REMARKS
ST LOUIS INTL  PTCLDY    36  29  75 S9        30.01R WCI  29
SPIRIT OF STL  CLEAR     33  29  85 CALM      29.99R
ST CHARLES     CLEAR     34  30  85 S9        30.00R WCI  27

$$
MOZ072>076-082>087-097>100-106>115-251500-
...SOUTH CENTRAL AND SOUTHEAST MISSOURI...

CITY           SKY/WX    TMP DP  RH WIND       PRES   REMARKS
CAPE GIRARDEAU CLEAR     34  31  88 S5        30.08R WCI  30
FARMINGTON     CLEAR     32  28  86 S5        30.03R WCI  27
POPLAR BLUFF   CLEAR     34  29  82 S7        30.08R WCI  28
WEST PLAINS    CLEAR     32  27  81 S7        30.02R WCI  26

$$



USA.gov is the U.S. government's official web portal to all federal, state and local government web resources and services.